sat.trackr.live / text

‹ back to catalog

STARLINK-31909

NORAD 59663 · 2024-084K

PAYLOAD ACTIVE UNKNOWN

§ Identity

Operator
Country
US
Launch date
2024-05-06
Launch site
AFETR
Launch vehicle
Mass (kg)
RCS (m²)

Purposes: comms

External: N2YO · Heavens-Above · Gunter

§ Orbital elements

Epoch: 2026-09-21T08:43:41.853504Z

Period
94.27 min
Inclination
43.0041°
Eccentricity
0.0000917
Mean motion
15.27583394 rev/d
Perigee alt
482.4 km
Apogee alt
483.7 km
Semi-major
6,861.2 km
B*
1.2088e-5
RAAN
16.3724°
Arg perigee
272.1677°
Mean anomaly
87.9069°
Rev number
13,430

§ Raw data

STARLINK-319091 59663U 24084K   26264.36367886  .00000071  00000+0  12088-4 0  99942 59663  43.0041  16.3724 0000917 272.1677  87.9069 15.27583394134302

JSON: /api/v1/satellites/59663 · /tle

For live sub-satellite position, see the globe view (requires WebGL).

§ Visibility from observer

Set your observer location to see the next 7 days of passes ≥ 10°. The values pass through the URL so the page stays shareable.

No JS? Fill the form by hand. The geolocation button needs JavaScript.